Overview Statistics Trail Chart Weather Telemetry Raw packets
 

This is the latest recevied weather packets stored in our database for station/object KW6V-15. If no packets are shown the sender has not sent any weather packets the latest 10 day(s).

<< 15 16 17 18 19 >>
Time Temp. Humidity Pressure Rain* Wind** Luminosity Snow
1787855446 18.89° C 79% 1017.1 hPa 0 mm - - -
1787853644 18.89° C 81% 1017 hPa 0 mm - - -
1787851838 16.67° C 89% 1017.1 hPa 0 mm - - -
1787850031 15.56° C 92% 1017.1 hPa 0 mm - - -
1787848220 15° C 92% 1017 hPa 0 mm - - -
1787846434 14.44° C 92% 1017.3 hPa 0 mm - - -
1787844639 13.89° C 92% 1016.9 hPa 0 mm - - -
1787842843 13.33° C 92% 1016.9 hPa 0 mm - - -
1787841043 12.78° C 92% 1016.7 hPa 0 mm - - -
1787839245 12.78° C 92% 1016.5 hPa 0 mm - - -
1787837481 12.78° C 92% 1016.3 hPa 0 mm - - -
1787835643 13.33° C 92% 1016 hPa 0 mm - - -
1787833897 13.89° C 92% 1016.1 hPa 0 mm - - -
1787832064 13.89° C 92% 1016.3 hPa 0 mm - - -
1787830226 14.44° C 92% 1016.3 hPa 0 mm - - -
1787828446 14.44° C 91% 1016.1 hPa 0 mm - - -
1787826654 14.44° C 91% 1016.2 hPa 0 mm - - -
1787824839 15° C 91% 1016.3 hPa 0 mm - - -
1787823085 15° C 91% 1016.2 hPa 0 mm - - -
1787821239 15° C 90% 1016.4 hPa 0 mm - - -
1787819432 15.56° C 90% 1016.5 hPa 0 mm - - -
1787817621 15.56° C 90% 1016.6 hPa 0 mm - - -
1787815881 16.11° C 90% 1016.8 hPa 0 mm - - -
1787814050 16.11° C 90% 1016.8 hPa 0 mm - - -
1787810529 16.11° C 90% 1016.7 hPa 0 mm - - -

* Rain latest hour (hover to see other rain measurements)
** Current wind speed in m/s (hover to see current wind gust speed)